TimeEST,TemperatureF,Dew PointF,Humidity,Sea Level PressureIn,VisibilityMPH,Wind Direction,Wind SpeedMPH,Gust SpeedMPH,PrecipitationIn,Events,Conditions,WindDirDegrees,DateUTC
12:53 AM,57.9,36.0,44,30.25,10.0,SSW,6.9,-,N/A,,Clear,200,2012-03-08 05:53:00
1:53 AM,57.9,37.0,46,30.25,10.0,SSW,5.8,-,N/A,,Clear,200,2012-03-08 06:53:00
2:53 AM,57.0,37.0,47,30.22,10.0,South,9.2,-,N/A,,Partly Cloudy,190,2012-03-08 07:53:00
3:53 AM,57.0,37.9,49,30.19,10.0,South,8.1,16.1,N/A,,Scattered Clouds,180,2012-03-08 08:53:00
4:53 AM,57.0,39.0,51,30.18,10.0,SSW,6.9,17.3,N/A,,Clear,210,2012-03-08 09:53:00
5:53 AM,57.0,39.0,51,30.17,10.0,South,6.9,-,N/A,,Clear,190,2012-03-08 10:53:00
6:53 AM,57.9,39.9,51,30.15,10.0,South,8.1,-,N/A,,Overcast,190,2012-03-08 11:53:00
7:53 AM,59.0,39.9,49,30.13,10.0,South,4.6,-,N/A,,Mostly Cloudy,190,2012-03-08 12:53:00
8:53 AM,61.0,41.0,48,30.10,10.0,South,5.8,-,N/A,,Scattered Clouds,190,2012-03-08 13:53:00
9:53 AM,64.9,42.1,43,30.06,10.0,SSW,12.7,20.7,N/A,,Scattered Clouds,200,2012-03-08 14:53:00
10:53 AM,66.9,42.1,40,30.06,10.0,SW,17.3,28.8,N/A,,Mostly Cloudy,220,2012-03-08 15:53:00
11:53 AM,66.0,42.1,42,30.07,10.0,SW,13.8,20.7,N/A,,Overcast,230,2012-03-08 16:53:00
12:53 PM,61.0,48.0,62,30.08,5.0,Variable,5.8,-,0.03,Rain,Light Rain,0,2012-03-08 17:53:00
1:53 PM,57.9,51.1,78,30.06,6.0,Variable,6.9,-,0.05,Rain,Light Rain,0,2012-03-08 18:53:00
2:53 PM,57.0,50.0,77,30.05,8.0,SSW,9.2,-,0.02,Rain,Light Rain,210,2012-03-08 19:53:00
3:48 PM,55.4,51.8,88,30.04,2.5,Variable,3.5,-,0.08,Rain,Rain,0,2012-03-08 20:48:00
3:53 PM,55.0,52.0,89,30.04,2.5,South,6.9,-,0.10,Rain,Rain,190,2012-03-08 20:53:00
4:04 PM,55.4,51.8,88,30.03,4.0,SSW,6.9,-,0.01,Rain,Light Rain,200,2012-03-08 21:04:00
4:53 PM,57.0,51.1,81,30.01,10.0,Variable,6.9,20.7,0.04,,Overcast,0,2012-03-08 21:53:00
5:53 PM,55.9,51.1,84,30.00,9.0,Variable,6.9,-,0.00,,Overcast,0,2012-03-08 22:53:00
6:53 PM,55.9,51.1,84,29.98,10.0,SSW,9.2,-,0.02,,Overcast,210,2012-03-08 23:53:00
7:53 PM,55.9,51.1,84,29.98,7.0,SSW,12.7,20.7,0.03,Rain,Light Rain,210,2012-03-09 00:53:00
8:46 PM,53.6,51.8,94,30.02,2.0,NW,16.1,28.8,0.13,Rain,Rain,320,2012-03-09 01:46:00
8:51 PM,50.0,46.4,87,30.04,1.2,NNW,16.1,32.2,0.17,Rain,Heavy Rain,330,2012-03-09 01:51:00
8:53 PM,48.9,46.0,90,30.04,1.2,NNW,16.1,32.2,0.18,Rain,Heavy Rain,330,2012-03-09 01:53:00
9:00 PM,48.2,44.6,87,30.05,3.0,NW,11.5,26.5,0.03,Rain,Rain,320,2012-03-09 02:00:00
9:26 PM,48.2,44.6,87,30.09,9.0,NW,5.8,-,0.05,Rain,Light Rain,320,2012-03-09 02:26:00
9:33 PM,46.4,44.6,93,30.10,8.0,NNW,9.2,-,0.06,Rain,Light Rain,340,2012-03-09 02:33:00
9:48 PM,46.4,42.8,87,30.11,10.0,NNW,11.5,19.6,0.06,,Overcast,330,2012-03-09 02:48:00
9:53 PM,46.0,41.0,83,30.11,10.0,NW,8.1,18.4,0.06,,Overcast,320,2012-03-09 02:53:00
10:16 PM,44.6,39.2,81,30.14,7.0,NW,13.8,23.0,0.01,Rain,Light Rain,320,2012-03-09 03:16:00
10:27 PM,44.6,37.4,76,30.15,10.0,Variable,6.9,19.6,0.02,Rain,Light Rain,0,2012-03-09 03:27:00
10:53 PM,43.0,37.0,80,30.17,10.0,NW,8.1,-,0.02,,Overcast,320,2012-03-09 03:53:00
11:53 PM,42.1,32.0,67,30.18,10.0,NW,6.9,-,N/A,,Mostly Cloudy,310,2012-03-09 04:53:00